GMBLR11 -KNZY

Flight info

Callsign GMBLR11
Flight time N/A
Altitude VFR
Route
Aircraft H60/M-VGD/C

Departure

Time N/A
Airport -

Arrival

Time 2026-04-24 02:09
Airport North Island Naval Air Station-Halsey Field (KNZY)
Time Latitude Longitude Altitude Speed Heading
2026-04-24 01:49 32.92532 -118.24175 5493 ft 174 kts 106°
2026-04-24 01:49 32.92199 -118.22782 5492 ft 176 kts 106°
2026-04-24 01:49 32.91867 -118.21399 5493 ft 176 kts 106°
2026-04-24 01:50 32.91538 -118.20000 5494 ft 175 kts 106°
2026-04-24 01:50 32.91200 -118.18589 5486 ft 179 kts 106°
2026-04-24 01:50 32.90855 -118.17149 5490 ft 180 kts 106°
2026-04-24 01:50 32.90514 -118.15719 5491 ft 180 kts 106°
2026-04-24 01:51 32.90169 -118.14287 5490 ft 180 kts 106°
2026-04-24 01:51 32.89827 -118.12854 5493 ft 180 kts 106°
2026-04-24 01:51 32.89477 -118.11422 5497 ft 180 kts 106°
2026-04-24 01:51 32.89128 -118.09999 5499 ft 178 kts 106°
2026-04-24 01:52 32.88794 -118.08645 5507 ft 159 kts 106°
2026-04-24 01:52 32.88502 -118.07442 5506 ft 145 kts 106°
2026-04-24 01:52 32.88230 -118.06321 5505 ft 138 kts 106°
2026-04-24 01:52 32.87986 -118.05257 5507 ft 133 kts 106°
2026-04-24 01:53 32.87700 -118.04033 5498 ft 160 kts 106°
2026-04-24 01:53 32.87516 -118.03228 5506 ft 151 kts 106°
2026-04-24 01:53 32.87223 -118.01949 5506 ft 159 kts 106°
2026-04-24 01:53 32.86833 -118.00266 5502 ft 160 kts 106°
2026-04-24 01:54 32.86543 -117.99030 5503 ft 159 kts 106°
2026-04-24 01:54 32.86250 -117.97759 5503 ft 156 kts 106°
2026-04-24 01:54 32.86057 -117.96913 5504 ft 157 kts 106°
2026-04-24 01:54 32.85771 -117.95669 5505 ft 156 kts 106°
2026-04-24 01:55 32.85475 -117.94393 5505 ft 158 kts 106°
2026-04-24 01:55 32.85184 -117.93138 5501 ft 162 kts 106°
2026-04-24 01:55 32.84889 -117.91867 5501 ft 161 kts 106°
2026-04-24 01:55 32.84593 -117.90593 5503 ft 158 kts 106°
2026-04-24 01:56 32.84302 -117.89343 5503 ft 159 kts 106°
2026-04-24 01:56 32.84011 -117.88077 5503 ft 160 kts 106°
2026-04-24 01:56 32.83726 -117.86832 5502 ft 155 kts 106°
2026-04-24 01:56 32.83439 -117.85574 5502 ft 159 kts 106°
2026-04-24 01:57 32.83151 -117.84308 5504 ft 155 kts 106°
2026-04-24 01:57 32.82852 -117.82996 5493 ft 180 kts 106°
2026-04-24 01:57 32.82507 -117.81494 5488 ft 195 kts 106°
2026-04-24 01:57 32.82138 -117.79904 5467 ft 203 kts 106°
2026-04-24 01:58 32.81757 -117.78265 5389 ft 208 kts 106°
2026-04-24 01:58 32.81381 -117.76644 5130 ft 187 kts 106°
2026-04-24 01:58 32.81078 -117.75311 5227 ft 147 kts 106°
2026-04-24 01:58 32.80815 -117.74163 5165 ft 155 kts 106°
2026-04-24 01:59 32.80531 -117.72904 5157 ft 161 kts 106°
2026-04-24 01:59 32.80247 -117.71640 5150 ft 159 kts 106°
2026-04-24 01:59 32.79963 -117.70377 5148 ft 154 kts 106°
2026-04-24 01:59 32.79684 -117.69131 5143 ft 163 kts 106°
2026-04-24 02:00 32.79397 -117.67872 5148 ft 146 kts 106°
2026-04-24 02:00 32.79125 -117.66680 5136 ft 161 kts 106°
2026-04-24 02:00 32.78841 -117.65432 5142 ft 154 kts 106°
2026-04-24 02:00 32.78549 -117.64157 5138 ft 173 kts 106°
2026-04-24 02:01 32.78248 -117.62827 5142 ft 154 kts 106°
2026-04-24 02:01 32.77965 -117.61577 5149 ft 156 kts 106°
2026-04-24 02:01 32.77688 -117.60358 5149 ft 148 kts 106°
2026-04-24 02:01 32.77431 -117.59223 5146 ft 139 kts 106°
2026-04-24 02:02 32.77190 -117.58154 5155 ft 132 kts 106°
2026-04-24 02:02 32.76939 -117.57037 5441 ft 152 kts 106°
2026-04-24 02:02 32.76664 -117.55832 5475 ft 144 kts 106°
2026-04-24 02:02 32.76374 -117.54578 5482 ft 168 kts 106°
2026-04-24 02:03 32.75768 -117.51992 5329 ft 141 kts 106°
2026-04-24 02:03 32.75529 -117.50933 5371 ft 125 kts 106°
2026-04-24 02:03 32.75269 -117.49801 5368 ft 160 kts 106°
2026-04-24 02:04 32.74956 -117.48450 5299 ft 178 kts 106°
2026-04-24 02:04 32.74622 -117.47008 5131 ft 182 kts 106°
2026-04-24 02:04 32.74298 -117.45567 4100 ft 184 kts 106°
2026-04-24 02:04 32.73955 -117.44058 2626 ft 193 kts 106°
2026-04-24 02:05 32.73586 -117.42550 2519 ft 178 kts 106°
2026-04-24 02:05 32.73291 -117.41329 2269 ft 139 kts 106°
2026-04-24 02:05 32.73046 -117.40322 2150 ft 118 kts 107°
2026-04-24 02:05 32.72801 -117.39457 2102 ft 104 kts 108°
2026-04-24 02:06 32.72589 -117.38693 2102 ft 91 kts 108°
2026-04-24 02:06 32.72368 -117.37889 1995 ft 128 kts 108°
2026-04-24 02:06 32.72063 -117.36758 1965 ft 141 kts 108°
2026-04-24 02:06 32.71763 -117.35646 2046 ft 139 kts 108°
2026-04-24 02:07 32.71451 -117.34497 2001 ft 162 kts 108°
2026-04-24 02:07 32.71086 -117.33131 1846 ft 182 kts 108°
2026-04-24 02:07 32.70692 -117.31660 1730 ft 190 kts 108°
2026-04-24 02:07 32.70328 -117.30153 1610 ft 190 kts 105°
2026-04-24 02:08 32.70028 -117.28628 1551 ft 190 kts 102°
2026-04-24 02:08 32.69805 -117.27149 1535 ft 161 kts 100°
2026-04-24 02:08 32.69646 -117.26005 1611 ft 130 kts 100°
2026-04-24 02:08 32.69505 -117.24941 1576 ft 143 kts 99°
2026-04-24 02:09 32.69365 -117.23664 955 ft 161 kts 93°
2026-04-24 02:09 32.69426 -117.22381 584 ft 144 kts 80°
2026-04-24 02:09 32.69598 -117.21290 285 ft 115 kts 64°
2026-04-24 02:09 32.69716 -117.20851 104 ft 15 kts 318°
2026-04-24 02:10 32.69863 -117.20958 68 ft 27 kts 311°
2026-04-24 02:10 32.69930 -117.21023 44 ft 2 kts 305°
2026-04-24 02:10 32.69932 -117.21025 32 ft 0 kts 306°
2026-04-24 02:10 32.69931 -117.21032 32 ft 3 kts 105°
2026-04-24 02:11 32.69931 -117.21030 32 ft 0 kts 100°
2026-04-24 02:11 32.69925 -117.21015 33 ft 5 kts 120°
2026-04-24 02:11 32.69910 -117.20982 33 ft 5 kts 106°
2026-04-24 02:11 32.69934 -117.20954 34 ft 6 kts 31°
2026-04-24 02:12 32.69970 -117.20928 34 ft 5 kts 31°
2026-04-24 02:12 32.69996 -117.20894 34 ft 6 kts 119°
2026-04-24 02:12 32.69981 -117.20867 34 ft 0 kts 118°